Location: Waco, TX
(31.5480°N, 97.1670°W)
Time: 19:57:47
(UTC-06:00)

ISS - Pass Details

Date: 10 January 2018
Orbit: 402 x 407 km, 51.6° (Epoch: 22 January)

Event Time Altitude Azimuth Distance (km) Brightness Sun altitude
Rises 00:42:43 0° 223° (SW) 2,299 - -80.3°
Reaches altitude 10° 00:44:46 10° 223° (SW) 1,445 - -80.2°
Maximum altitude 00:48:01 88° 137° (SE) 405 - -80.0°
Drops below altitude 10° 00:51:17 10° 45° (NE) 1,455 - -79.8°
Sets 00:53:22 0° 45° (NE) 2,318 - -79.7°
